Location: Unspecified
(0.0000°N, 0.0000°E)
Time: 08:36:25
(UTC+00:00)

deb r/b Ablestar - Pass Details

Date: 19 February 2026
Orbit: 888 x 1147 km, 67.2° (Epoch: 14 March)

Event Time Altitude Azimuth Distance (km) Brightness Sun altitude
Exits shadow 03:11:43 30° 92° (E) 1,916 ? -44.4°
Drops below altitude 10° 03:16:39 10° 132° (SE) 3,039 ? -43.2°
Sets 03:19:40 0° 141° (SE) 3,999 ? -42.5°
